Volver al catálogo

FENGYUN 1C DEB

ActivoLEO
NORAD 31286·DEBRIS·🇨🇳 China

Lanzado May 10, 1999 desde Taiyuan Satellite Launch Center

Loading…

Próximos Pases (próximas 24 horas)

TLE

ActualizadoSource: Space-Track

Época: Sep 14, 2026, 02:33 UTC

1 31286U 99025BNU 26257.10684305  .00003893  00000-0  16151-2 0  9993
2 31286 100.8576 217.0964 0074769 257.0853 102.1960 14.25810043679404

Sigue FENGYUN 1C DEB en tiempo real con AllMySat

Download on the App Store